Year,Month,Day,Hour,Minute,Value (Times are PST for temperature in C)
2017,04,21,00,00,9.70
2017,04,21,00,01,9.70
2017,04,21,00,02,9.80
2017,04,21,00,03,9.80
2017,04,21,00,04,9.80
2017,04,21,00,05,9.80
2017,04,21,00,06,9.80
2017,04,21,00,07,9.80
2017,04,21,00,08,9.80
2017,04,21,00,09,9.80
2017,04,21,00,10,9.80
2017,04,21,00,11,9.80
2017,04,21,00,12,9.80
2017,04,21,00,13,9.80
2017,04,21,00,14,9.80
2017,04,21,00,15,9.80
2017,04,21,00,16,9.80
2017,04,21,00,17,9.80
2017,04,21,00,18,9.80
2017,04,21,00,19,9.80
2017,04,21,00,20,9.80
2017,04,21,00,21,9.80
2017,04,21,00,22,9.80
2017,04,21,00,23,9.80
2017,04,21,00,24,9.80
2017,04,21,00,25,9.80
2017,04,21,00,26,9.80
2017,04,21,00,27,9.80
2017,04,21,00,28,9.80
2017,04,21,00,29,9.80
2017,04,21,00,30,9.80
2017,04,21,00,31,9.80
2017,04,21,00,32,9.80
2017,04,21,00,33,9.80
2017,04,21,00,34,9.80
2017,04,21,00,35,9.80
2017,04,21,00,36,9.80
2017,04,21,00,37,9.80
2017,04,21,00,38,9.80
2017,04,21,00,39,9.80
2017,04,21,00,40,9.80
2017,04,21,00,41,9.80
2017,04,21,00,42,9.80
2017,04,21,00,43,9.80
2017,04,21,00,44,9.80
2017,04,21,00,45,9.80
2017,04,21,00,46,9.80
2017,04,21,00,47,9.80
2017,04,21,00,48,9.80
2017,04,21,00,49,9.80
2017,04,21,00,50,9.80
2017,04,21,00,51,9.70
2017,04,21,00,52,9.70
2017,04,21,00,53,9.70
2017,04,21,00,54,9.70
2017,04,21,00,55,9.70
2017,04,21,00,56,9.70
2017,04,21,00,57,9.70
2017,04,21,00,58,9.70
2017,04,21,00,59,9.60
2017,04,21,01,00,9.60
2017,04,21,01,01,9.60
2017,04,21,01,02,9.60
2017,04,21,01,03,9.60
2017,04,21,01,04,9.50
2017,04,21,01,05,9.50
2017,04,21,01,06,9.40
2017,04,21,01,07,9.40
2017,04,21,01,08,9.40
2017,04,21,01,09,9.40
2017,04,21,01,10,9.30
2017,04,21,01,11,9.30
2017,04,21,01,12,9.30
2017,04,21,01,13,9.30
2017,04,21,01,14,9.30
2017,04,21,01,15,9.20
2017,04,21,01,16,9.20
2017,04,21,01,17,9.20
2017,04,21,01,18,9.20
2017,04,21,01,19,9.20
2017,04,21,01,20,9.20
2017,04,21,01,21,9.20
2017,04,21,01,22,9.20
2017,04,21,01,23,9.20
2017,04,21,01,24,9.20
2017,04,21,01,25,9.10
2017,04,21,01,26,9.10
2017,04,21,01,27,9.10
2017,04,21,01,28,9.10
2017,04,21,01,29,9.10
2017,04,21,01,30,9.10
2017,04,21,01,31,9.10
2017,04,21,01,32,9.00
2017,04,21,01,33,9.00
2017,04,21,01,34,9.00
2017,04,21,01,35,9.00
2017,04,21,01,36,8.90
2017,04,21,01,37,8.90
2017,04,21,01,38,8.90
2017,04,21,01,39,8.90
2017,04,21,01,40,8.90
2017,04,21,01,41,8.80
2017,04,21,01,42,8.80
2017,04,21,01,43,8.80
2017,04,21,01,44,8.80
2017,04,21,01,45,8.80
2017,04,21,01,46,8.80
2017,04,21,01,47,8.80
2017,04,21,01,48,8.70
2017,04,21,01,49,8.70
2017,04,21,01,50,8.70
2017,04,21,01,51,8.70
2017,04,21,01,52,8.70
2017,04,21,01,53,8.70
2017,04,21,01,54,8.70
2017,04,21,01,55,8.70
2017,04,21,01,56,8.70
2017,04,21,01,57,8.70
2017,04,21,01,58,8.70
2017,04,21,01,59,8.70
2017,04,21,02,00,8.70
2017,04,21,02,01,8.70
2017,04,21,02,02,8.70
2017,04,21,02,03,8.70
2017,04,21,02,04,8.70
2017,04,21,02,05,8.70
2017,04,21,02,06,8.70
2017,04,21,02,07,8.70
2017,04,21,02,08,8.70
2017,04,21,02,09,8.70
2017,04,21,02,10,8.70
2017,04,21,02,11,8.70
2017,04,21,02,12,8.70
2017,04,21,02,13,8.70
2017,04,21,02,14,8.70
2017,04,21,02,15,8.60
2017,04,21,02,16,8.60
2017,04,21,02,17,8.60
2017,04,21,02,18,8.50
2017,04,21,02,19,8.50
2017,04,21,02,20,8.40
2017,04,21,02,21,8.40
2017,04,21,02,22,8.40
2017,04,21,02,23,8.40
2017,04,21,02,24,8.40
2017,04,21,02,25,8.40
2017,04,21,02,26,8.30
2017,04,21,02,27,8.30
2017,04,21,02,28,8.30
2017,04,21,02,29,8.30
2017,04,21,02,30,8.40
2017,04,21,02,31,8.40
2017,04,21,02,32,8.40
2017,04,21,02,33,8.40
2017,04,21,02,34,8.40
2017,04,21,02,35,8.50
2017,04,21,02,36,8.50
2017,04,21,02,37,8.50
2017,04,21,02,38,8.50
2017,04,21,02,39,8.50
2017,04,21,02,40,8.50
2017,04,21,02,41,8.60
2017,04,21,02,42,8.60
2017,04,21,02,43,8.60
2017,04,21,02,44,8.60
2017,04,21,02,45,8.60
2017,04,21,02,46,8.60
2017,04,21,02,47,8.60
2017,04,21,02,48,8.60
2017,04,21,02,49,8.60
2017,04,21,02,50,8.50
2017,04,21,02,51,8.60
2017,04,21,02,52,8.60
2017,04,21,02,53,8.60
2017,04,21,02,54,8.50
2017,04,21,02,55,8.50
2017,04,21,02,56,8.50
2017,04,21,02,57,8.50
2017,04,21,02,58,8.50
2017,04,21,02,59,8.50
2017,04,21,03,00,8.50
2017,04,21,03,01,8.50
2017,04,21,03,02,8.50
2017,04,21,03,03,8.50
2017,04,21,03,04,8.50
2017,04,21,03,05,8.50
2017,04,21,03,06,8.50
2017,04,21,03,07,8.40
2017,04,21,03,08,8.40
2017,04,21,03,09,8.40
2017,04,21,03,10,8.40
2017,04,21,03,11,8.40
2017,04,21,03,12,8.40
2017,04,21,03,13,8.40
2017,04,21,03,14,8.40
2017,04,21,03,15,8.40
2017,04,21,03,16,8.40
2017,04,21,03,17,8.40
2017,04,21,03,18,8.50
2017,04,21,03,19,8.50
2017,04,21,03,20,8.50
2017,04,21,03,21,8.60
2017,04,21,03,22,8.60
2017,04,21,03,23,8.60
2017,04,21,03,24,8.60
2017,04,21,03,25,8.60
2017,04,21,03,26,8.60
2017,04,21,03,27,8.60
2017,04,21,03,28,8.60
2017,04,21,03,29,8.60
2017,04,21,03,30,8.60
2017,04,21,03,31,8.60
2017,04,21,03,32,8.60
2017,04,21,03,33,8.60
2017,04,21,03,34,8.60
2017,04,21,03,35,8.60
2017,04,21,03,36,8.60
2017,04,21,03,37,8.60
2017,04,21,03,38,8.60
2017,04,21,03,39,8.60
2017,04,21,03,40,8.60
2017,04,21,03,41,8.60
2017,04,21,03,42,8.60
2017,04,21,03,43,8.60
2017,04,21,03,44,8.60
2017,04,21,03,45,8.60
2017,04,21,03,46,8.60
2017,04,21,03,47,8.60
2017,04,21,03,48,8.60
2017,04,21,03,49,8.60
2017,04,21,03,50,8.60
2017,04,21,03,51,8.60
2017,04,21,03,52,8.60
2017,04,21,03,53,8.60
2017,04,21,03,54,8.60
2017,04,21,03,55,8.60
2017,04,21,03,56,8.60
2017,04,21,03,57,8.60
2017,04,21,03,58,8.60
2017,04,21,03,59,8.60
2017,04,21,04,00,8.60
2017,04,21,04,01,8.60
2017,04,21,04,02,8.50
2017,04,21,04,03,8.50
2017,04,21,04,04,8.50
2017,04,21,04,05,8.50
2017,04,21,04,06,8.50
2017,04,21,04,07,8.40
2017,04,21,04,08,8.40
2017,04,21,04,09,8.40
2017,04,21,04,10,8.40
2017,04,21,04,11,8.40
2017,04,21,04,12,8.40
2017,04,21,04,13,8.40
2017,04,21,04,14,8.40
2017,04,21,04,15,8.40
2017,04,21,04,16,8.40
2017,04,21,04,17,8.40
2017,04,21,04,18,8.40
2017,04,21,04,19,8.40
2017,04,21,04,20,8.40
2017,04,21,04,21,8.40
2017,04,21,04,22,8.40
2017,04,21,04,23,8.30
2017,04,21,04,24,8.30
2017,04,21,04,25,8.30
2017,04,21,04,26,8.30
2017,04,21,04,27,8.30
2017,04,21,04,28,8.20
2017,04,21,04,29,8.20
2017,04,21,04,30,8.20
2017,04,21,04,31,8.20
2017,04,21,04,32,8.10
2017,04,21,04,33,8.10
2017,04,21,04,34,8.10
2017,04,21,04,35,8.10
2017,04,21,04,36,8.00
2017,04,21,04,37,8.00
2017,04,21,04,38,8.00
2017,04,21,04,39,7.90
2017,04,21,04,40,7.90
2017,04,21,04,41,7.90
2017,04,21,04,42,7.80
2017,04,21,04,43,7.80
2017,04,21,04,44,7.80
2017,04,21,04,45,7.80
2017,04,21,04,46,7.70
2017,04,21,04,47,7.70
2017,04,21,04,48,7.70
2017,04,21,04,49,7.60
2017,04,21,04,50,7.50
2017,04,21,04,51,7.50
2017,04,21,04,52,7.40
2017,04,21,04,53,7.40
2017,04,21,04,54,7.30
2017,04,21,04,55,7.30
2017,04,21,04,56,7.30
2017,04,21,04,57,7.20
2017,04,21,04,58,7.20
2017,04,21,04,59,7.20
2017,04,21,05,00,7.10
2017,04,21,05,01,7.10
2017,04,21,05,02,7.10
2017,04,21,05,03,7.00
2017,04,21,05,04,7.00
2017,04,21,05,05,7.00
2017,04,21,05,06,6.90
2017,04,21,05,07,6.90
2017,04,21,05,08,6.90
2017,04,21,05,09,6.90
2017,04,21,05,10,6.80
2017,04,21,05,11,6.80
2017,04,21,05,12,6.80
2017,04,21,05,13,6.80
2017,04,21,05,14,6.70
2017,04,21,05,15,6.70
2017,04,21,05,16,6.70
2017,04,21,05,17,6.60
2017,04,21,05,18,6.60
2017,04,21,05,19,6.60
2017,04,21,05,20,6.60
2017,04,21,05,21,6.60
2017,04,21,05,22,6.50
2017,04,21,05,23,6.50
2017,04,21,05,24,6.50
2017,04,21,05,25,6.50
2017,04,21,05,26,6.50
2017,04,21,05,27,6.50
2017,04,21,05,28,6.50
2017,04,21,05,29,6.50
2017,04,21,05,30,6.50
2017,04,21,05,31,6.50
2017,04,21,05,32,6.40
2017,04,21,05,33,6.40
2017,04,21,05,34,6.30
2017,04,21,05,35,6.30
2017,04,21,05,36,6.30
2017,04,21,05,37,6.30
2017,04,21,05,38,6.20
2017,04,21,05,39,6.20
2017,04,21,05,40,6.20
2017,04,21,05,41,6.20
2017,04,21,05,42,6.20
2017,04,21,05,43,6.20
2017,04,21,05,44,6.20
2017,04,21,05,45,6.20
2017,04,21,05,46,6.10
2017,04,21,05,47,6.10
2017,04,21,05,48,6.10
2017,04,21,05,49,6.00
2017,04,21,05,50,6.00
2017,04,21,05,51,6.00
2017,04,21,05,52,6.00
2017,04,21,05,53,6.00
2017,04,21,05,54,6.00
2017,04,21,05,55,6.00
2017,04,21,05,56,6.00
2017,04,21,05,57,6.00
2017,04,21,05,58,6.00
2017,04,21,05,59,6.00
2017,04,21,06,00,6.10
2017,04,21,06,01,6.10
2017,04,21,06,02,6.00
2017,04,21,06,03,6.00
2017,04,21,06,04,6.00
2017,04,21,06,05,6.00
2017,04,21,06,06,6.00
2017,04,21,06,07,6.00
2017,04,21,06,08,6.00
2017,04,21,06,09,5.90
2017,04,21,06,10,5.90
2017,04,21,06,11,5.90
2017,04,21,06,12,5.90
2017,04,21,06,13,5.90
2017,04,21,06,14,5.90
2017,04,21,06,15,5.90
2017,04,21,06,16,5.90
2017,04,21,06,17,5.90
2017,04,21,06,18,5.90
2017,04,21,06,19,5.90
2017,04,21,06,20,5.90
2017,04,21,06,21,5.80
2017,04,21,06,22,5.80
2017,04,21,06,23,5.80
2017,04,21,06,24,5.80
2017,04,21,06,25,5.80
2017,04,21,06,26,5.80
2017,04,21,06,27,5.80
2017,04,21,06,28,5.80
2017,04,21,06,29,5.80
2017,04,21,06,30,5.80
2017,04,21,06,31,5.80
2017,04,21,06,32,5.70
2017,04,21,06,33,5.70
2017,04,21,06,34,5.70
2017,04,21,06,35,5.70
2017,04,21,06,36,5.70
2017,04,21,06,37,5.70
2017,04,21,06,38,5.70
2017,04,21,06,39,5.70
2017,04,21,06,40,5.70
2017,04,21,06,41,5.70
2017,04,21,06,42,5.70
2017,04,21,06,43,5.70
2017,04,21,06,44,5.80
2017,04,21,06,45,5.80
2017,04,21,06,46,5.80
2017,04,21,06,47,5.80
2017,04,21,06,48,5.80
2017,04,21,06,49,5.80
2017,04,21,06,50,5.80
2017,04,21,06,51,5.90
2017,04,21,06,52,5.90
2017,04,21,06,53,5.90
2017,04,21,06,54,5.90
2017,04,21,06,55,6.00
2017,04,21,06,56,6.00
2017,04,21,06,57,6.10
2017,04,21,06,58,6.10
2017,04,21,06,59,6.10
2017,04,21,07,00,6.20
2017,04,21,07,01,6.20
2017,04,21,07,02,6.20
2017,04,21,07,03,6.30
2017,04,21,07,04,6.30
2017,04,21,07,05,6.40
2017,04,21,07,06,6.40
2017,04,21,07,07,6.50
2017,04,21,07,08,6.60
2017,04,21,07,09,6.70
2017,04,21,07,10,6.70
2017,04,21,07,11,6.80
2017,04,21,07,12,6.80
2017,04,21,07,13,6.90
2017,04,21,07,14,7.00
2017,04,21,07,15,7.00
2017,04,21,07,16,7.10
2017,04,21,07,17,7.20
2017,04,21,07,18,7.30
2017,04,21,07,19,7.40
2017,04,21,07,20,7.50
2017,04,21,07,21,7.50
2017,04,21,07,22,7.60
2017,04,21,07,23,7.60
2017,04,21,07,24,7.70
2017,04,21,07,25,7.70
2017,04,21,07,26,7.80
2017,04,21,07,27,7.80
2017,04,21,07,28,7.90
2017,04,21,07,29,7.90
2017,04,21,07,30,8.00
2017,04,21,07,31,8.10
2017,04,21,07,32,8.10
2017,04,21,07,33,8.20
2017,04,21,07,34,8.30
2017,04,21,07,35,8.40
2017,04,21,07,36,8.50
2017,04,21,07,37,8.60
2017,04,21,07,38,8.70
2017,04,21,07,39,8.80
2017,04,21,07,40,8.90
2017,04,21,07,41,9.00
2017,04,21,07,42,9.00
2017,04,21,07,43,9.10
2017,04,21,07,44,9.20
2017,04,21,07,45,9.20
2017,04,21,07,46,9.30
2017,04,21,07,47,9.30
2017,04,21,07,48,9.40
2017,04,21,07,49,9.40
2017,04,21,07,50,9.50
2017,04,21,07,51,9.50
2017,04,21,07,52,9.50
2017,04,21,07,53,9.60
2017,04,21,07,54,9.60
2017,04,21,07,55,9.70
2017,04,21,07,56,9.70
2017,04,21,07,57,9.70
2017,04,21,07,58,9.70
2017,04,21,07,59,9.80
2017,04,21,08,00,9.80
2017,04,21,08,01,9.90
2017,04,21,08,02,9.90
2017,04,21,08,03,10.00
2017,04,21,08,04,10.00
2017,04,21,08,05,10.10
2017,04,21,08,06,10.10
2017,04,21,08,07,10.10
2017,04,21,08,08,10.10
2017,04,21,08,09,10.10
2017,04,21,08,10,10.00
2017,04,21,08,11,10.00
2017,04,21,08,12,9.90
2017,04,21,08,13,9.90
2017,04,21,08,14,9.90
2017,04,21,08,15,9.90
2017,04,21,08,16,9.90
2017,04,21,08,17,9.90
2017,04,21,08,18,9.90
2017,04,21,08,19,9.90
2017,04,21,08,20,9.90
2017,04,21,08,21,9.90
2017,04,21,08,22,9.80
2017,04,21,08,23,9.80
2017,04,21,08,24,9.80
2017,04,21,08,25,9.80
2017,04,21,08,26,9.70
2017,04,21,08,27,9.80
2017,04,21,08,28,9.80
2017,04,21,08,29,9.80
2017,04,21,08,30,9.80
2017,04,21,08,31,9.90
2017,04,21,08,32,9.90
2017,04,21,08,33,10.00
2017,04,21,08,34,10.00
2017,04,21,08,35,10.00
2017,04,21,08,36,10.00
2017,04,21,08,37,10.00
2017,04,21,08,38,9.90
2017,04,21,08,39,9.90
2017,04,21,08,40,9.90
2017,04,21,08,41,9.90
2017,04,21,08,42,10.00
2017,04,21,08,43,10.00
2017,04,21,08,44,10.00
2017,04,21,08,45,10.00
2017,04,21,08,46,10.00
2017,04,21,08,47,10.00
2017,04,21,08,48,10.00
2017,04,21,08,49,10.10
2017,04,21,08,50,10.10
2017,04,21,08,51,10.10
2017,04,21,08,52,10.10
2017,04,21,08,53,10.20
2017,04,21,08,54,10.20
2017,04,21,08,55,10.20
2017,04,21,08,56,10.20
2017,04,21,08,57,10.20
2017,04,21,08,58,10.20
2017,04,21,08,59,10.20
2017,04,21,09,00,10.30
2017,04,21,09,01,10.30
2017,04,21,09,02,10.30
2017,04,21,09,03,10.30
2017,04,21,09,04,10.30
2017,04,21,09,05,10.30
2017,04,21,09,06,10.30
2017,04,21,09,07,10.30
2017,04,21,09,08,10.40
2017,04,21,09,09,10.40
2017,04,21,09,10,10.40
2017,04,21,09,11,10.40
2017,04,21,09,12,10.40
2017,04,21,09,13,10.40
2017,04,21,09,14,10.40
2017,04,21,09,15,10.50
2017,04,21,09,16,10.50
2017,04,21,09,17,10.60
2017,04,21,09,18,10.60
2017,04,21,09,19,10.60
2017,04,21,09,20,10.60
2017,04,21,09,21,10.60
2017,04,21,09,22,10.70
2017,04,21,09,23,10.70
2017,04,21,09,24,10.70
2017,04,21,09,25,10.80
2017,04,21,09,26,10.70
2017,04,21,09,27,10.70
2017,04,21,09,28,10.70
2017,04,21,09,29,10.70
2017,04,21,09,30,10.70
2017,04,21,09,31,10.70
2017,04,21,09,32,10.60
2017,04,21,09,33,10.60
2017,04,21,09,34,10.50
2017,04,21,09,35,10.50
2017,04,21,09,36,10.60
2017,04,21,09,37,10.60
2017,04,21,09,38,10.60
2017,04,21,09,39,10.70
2017,04,21,09,40,10.70
2017,04,21,09,41,10.70
2017,04,21,09,42,10.70
2017,04,21,09,43,10.70
2017,04,21,09,44,10.70
2017,04,21,09,45,10.70
2017,04,21,09,46,10.70
2017,04,21,09,47,10.60
2017,04,21,09,48,10.50
2017,04,21,09,49,10.50
2017,04,21,09,50,10.40
2017,04,21,09,51,10.40
2017,04,21,09,52,10.30
2017,04,21,09,53,10.30
2017,04,21,09,54,10.30
2017,04,21,09,55,10.30
2017,04,21,09,56,10.30
2017,04,21,09,57,10.40
2017,04,21,09,58,10.40
2017,04,21,09,59,10.40
2017,04,21,10,00,10.40
2017,04,21,10,01,10.30
2017,04,21,10,02,10.30
2017,04,21,10,03,10.30
2017,04,21,10,04,10.30
2017,04,21,10,05,10.30
2017,04,21,10,06,10.30
2017,04,21,10,07,10.30
2017,04,21,10,08,10.30
2017,04,21,10,09,10.30
2017,04,21,10,10,10.40
2017,04,21,10,11,10.40
2017,04,21,10,12,10.40
2017,04,21,10,13,10.50
2017,04,21,10,14,10.50
2017,04,21,10,15,10.50
2017,04,21,10,16,10.50
2017,04,21,10,17,10.50
2017,04,21,10,18,10.50
2017,04,21,10,19,10.50
2017,04,21,10,20,10.50
2017,04,21,10,21,10.40
2017,04,21,10,22,10.40
2017,04,21,10,23,10.40
2017,04,21,10,24,10.40
2017,04,21,10,25,10.50
2017,04,21,10,26,10.60
2017,04,21,10,27,10.70
2017,04,21,10,28,10.70
2017,04,21,10,29,10.80
2017,04,21,10,30,10.80
2017,04,21,10,31,10.70
2017,04,21,10,32,10.70
2017,04,21,10,33,10.60
2017,04,21,10,34,10.60
2017,04,21,10,35,10.60
2017,04,21,10,36,10.60
2017,04,21,10,37,10.60
2017,04,21,10,38,10.50
2017,04,21,10,39,10.50
2017,04,21,10,40,10.50
2017,04,21,10,41,10.40
2017,04,21,10,42,10.40
2017,04,21,10,43,10.40
2017,04,21,10,44,10.40
2017,04,21,10,45,10.50
2017,04,21,10,46,10.50
2017,04,21,10,47,10.50
2017,04,21,10,48,10.50
2017,04,21,10,49,10.50
2017,04,21,10,50,10.60
2017,04,21,10,51,10.60
2017,04,21,10,52,10.70
2017,04,21,10,53,10.70
2017,04,21,10,54,10.70
2017,04,21,10,55,10.70
2017,04,21,10,56,10.80
2017,04,21,10,57,10.80
2017,04,21,10,58,10.80
2017,04,21,10,59,10.80
2017,04,21,11,00,10.80
2017,04,21,11,01,10.80
2017,04,21,11,02,10.80
2017,04,21,11,03,10.80
2017,04,21,11,04,10.80
2017,04,21,11,05,10.90
2017,04,21,11,06,10.90
2017,04,21,11,07,10.90
2017,04,21,11,08,11.00
2017,04,21,11,09,11.00
2017,04,21,11,10,11.10
2017,04,21,11,11,11.20
2017,04,21,11,12,11.20
2017,04,21,11,13,11.20
2017,04,21,11,14,11.30
2017,04,21,11,15,11.20
2017,04,21,11,16,11.20
2017,04,21,11,17,11.20
2017,04,21,11,18,11.20
2017,04,21,11,19,11.30
2017,04,21,11,20,11.30
2017,04,21,11,21,11.40
2017,04,21,11,22,11.40
2017,04,21,11,23,11.50
2017,04,21,11,24,11.60
2017,04,21,11,25,11.60
2017,04,21,11,26,11.70
2017,04,21,11,27,11.80
2017,04,21,11,28,11.80
2017,04,21,11,29,11.80
2017,04,21,11,30,11.80
2017,04,21,11,31,11.80
2017,04,21,11,32,11.80
2017,04,21,11,33,11.90
2017,04,21,11,34,11.90
2017,04,21,11,35,11.90
2017,04,21,11,36,11.90
2017,04,21,11,37,11.90
2017,04,21,11,38,11.90
2017,04,21,11,39,11.90
2017,04,21,11,40,11.80
2017,04,21,11,41,11.80
2017,04,21,11,42,11.80
2017,04,21,11,43,11.80
2017,04,21,11,44,11.80
2017,04,21,11,45,11.80
2017,04,21,11,46,11.80
2017,04,21,11,47,11.90
2017,04,21,11,48,11.90
2017,04,21,11,49,11.80
2017,04,21,11,50,11.80
2017,04,21,11,51,11.80
2017,04,21,11,52,11.80
2017,04,21,11,53,11.80
2017,04,21,11,54,11.80
2017,04,21,11,55,11.70
2017,04,21,11,56,11.80
2017,04,21,11,57,11.80
2017,04,21,11,58,11.70
2017,04,21,11,59,11.70
2017,04,21,12,00,11.70
2017,04,21,12,01,11.70
2017,04,21,12,02,11.80
2017,04,21,12,03,11.80
2017,04,21,12,04,11.80
2017,04,21,12,05,11.70
2017,04,21,12,06,11.70
2017,04,21,12,07,11.70
2017,04,21,12,08,11.70
2017,04,21,12,09,11.70
2017,04,21,12,10,11.70
2017,04,21,12,11,11.70
2017,04,21,12,12,11.70
2017,04,21,12,13,11.80
2017,04,21,12,14,11.80
2017,04,21,12,15,11.80
2017,04,21,12,16,11.80
2017,04,21,12,17,11.80
2017,04,21,12,18,11.80
2017,04,21,12,19,11.80
2017,04,21,12,20,11.70
2017,04,21,12,21,11.80
2017,04,21,12,22,11.80
2017,04,21,12,23,11.90
2017,04,21,12,24,12.00
2017,04,21,12,25,12.10
2017,04,21,12,26,12.20
2017,04,21,12,27,12.30
2017,04,21,12,28,12.40
2017,04,21,12,29,12.40
2017,04,21,12,30,12.40
2017,04,21,12,31,12.40
2017,04,21,12,32,12.40
2017,04,21,12,33,12.40
2017,04,21,12,34,12.40
2017,04,21,12,35,12.40
2017,04,21,12,36,12.30
2017,04,21,12,37,12.30
2017,04,21,12,38,12.40
2017,04,21,12,39,12.40
2017,04,21,12,40,12.40
2017,04,21,12,41,12.40
2017,04,21,12,42,12.40
2017,04,21,12,43,12.40
2017,04,21,12,44,12.40
2017,04,21,12,45,12.40
2017,04,21,12,46,12.40
2017,04,21,12,47,12.40
2017,04,21,12,48,12.40
2017,04,21,12,49,12.40
2017,04,21,12,50,12.40
2017,04,21,12,51,12.50
2017,04,21,12,52,12.50
2017,04,21,12,53,12.60
2017,04,21,12,54,12.60
2017,04,21,12,55,12.70
2017,04,21,12,56,12.60
2017,04,21,12,57,12.60
2017,04,21,12,58,12.50
2017,04,21,12,59,12.50
2017,04,21,13,00,12.50
2017,04,21,13,01,12.60
2017,04,21,13,02,12.60
2017,04,21,13,03,12.70
2017,04,21,13,04,12.70
2017,04,21,13,05,12.80
2017,04,21,13,06,12.90
2017,04,21,13,07,13.00
2017,04,21,13,08,13.10
2017,04,21,13,09,13.20
2017,04,21,13,10,13.20
2017,04,21,13,11,13.20
2017,04,21,13,12,13.20
2017,04,21,13,13,13.20
2017,04,21,13,14,13.20
2017,04,21,13,15,13.20
2017,04,21,13,16,13.20
2017,04,21,13,17,13.30
2017,04,21,13,18,13.30
2017,04,21,13,19,13.30
2017,04,21,13,20,13.40
2017,04,21,13,21,13.50
2017,04,21,13,22,13.60
2017,04,21,13,23,13.60
2017,04,21,13,24,13.60
2017,04,21,13,25,13.60
2017,04,21,13,26,13.60
2017,04,21,13,27,13.60
2017,04,21,13,28,13.60
2017,04,21,13,29,13.60
2017,04,21,13,30,13.60
2017,04,21,13,31,13.60
2017,04,21,13,32,13.60
2017,04,21,13,33,13.60
2017,04,21,13,34,13.60
2017,04,21,13,35,13.70
2017,04,21,13,36,13.70
2017,04,21,13,37,13.70
2017,04,21,13,38,13.70
2017,04,21,13,39,13.70
2017,04,21,13,40,13.70
2017,04,21,13,41,13.70
2017,04,21,13,42,13.70
2017,04,21,13,43,13.60
2017,04,21,13,44,13.60
2017,04,21,13,45,13.60
2017,04,21,13,46,13.60
2017,04,21,13,47,13.70
2017,04,21,13,48,13.80
2017,04,21,13,49,13.80
2017,04,21,13,50,13.90
2017,04,21,13,51,13.90
2017,04,21,13,52,13.90
2017,04,21,13,53,13.90
2017,04,21,13,54,13.90
2017,04,21,13,55,13.90
2017,04,21,13,56,13.90
2017,04,21,13,57,13.90
2017,04,21,13,58,14.00
2017,04,21,13,59,14.00
2017,04,21,14,00,14.10
2017,04,21,14,01,14.20
2017,04,21,14,02,14.20
2017,04,21,14,03,14.20
2017,04,21,14,04,14.20
2017,04,21,14,05,14.20
2017,04,21,14,06,14.10
2017,04,21,14,07,14.10
2017,04,21,14,08,14.10
2017,04,21,14,09,14.10
2017,04,21,14,10,14.10
2017,04,21,14,11,14.10
2017,04,21,14,12,14.10
2017,04,21,14,13,14.20
2017,04,21,14,14,14.30
2017,04,21,14,15,14.30
2017,04,21,14,16,14.40
2017,04,21,14,17,14.40
2017,04,21,14,18,14.50
2017,04,21,14,19,14.40
2017,04,21,14,20,14.40
2017,04,21,14,21,14.40
2017,04,21,14,22,14.40
2017,04,21,14,23,14.40
2017,04,21,14,24,14.30
2017,04,21,14,25,14.30
2017,04,21,14,26,14.30
2017,04,21,14,27,14.30
2017,04,21,14,28,14.30
2017,04,21,14,29,14.30
2017,04,21,14,30,14.30
2017,04,21,14,31,14.30
2017,04,21,14,32,14.40
2017,04,21,14,33,14.40
2017,04,21,14,34,14.40
2017,04,21,14,35,14.40
2017,04,21,14,36,14.40
2017,04,21,14,37,14.40
2017,04,21,14,38,14.40
2017,04,21,14,39,14.50
2017,04,21,14,40,14.60
2017,04,21,14,41,14.70
2017,04,21,14,42,14.70
2017,04,21,14,43,14.70
2017,04,21,14,44,14.70
2017,04,21,14,45,14.80
2017,04,21,14,46,14.90
2017,04,21,14,47,14.90
2017,04,21,14,48,14.90
2017,04,21,14,49,14.90
2017,04,21,14,50,14.90
2017,04,21,14,51,14.90
2017,04,21,14,52,15.00
2017,04,21,14,53,15.00
2017,04,21,14,54,14.90
2017,04,21,14,55,14.90
2017,04,21,14,56,14.90
2017,04,21,14,57,14.90
2017,04,21,14,58,14.90
2017,04,21,14,59,14.90
2017,04,21,15,00,14.80
2017,04,21,15,01,14.80
2017,04,21,15,02,14.80
2017,04,21,15,03,14.80
2017,04,21,15,04,14.80
2017,04,21,15,05,14.80
2017,04,21,15,06,14.90
2017,04,21,15,07,14.90
2017,04,21,15,08,14.90
2017,04,21,15,09,14.90
2017,04,21,15,10,15.00
2017,04,21,15,11,15.00
2017,04,21,15,12,15.00
2017,04,21,15,13,15.00
2017,04,21,15,14,15.10
2017,04,21,15,15,15.10
2017,04,21,15,16,15.10
2017,04,21,15,17,15.00
2017,04,21,15,18,15.00
2017,04,21,15,19,15.00
2017,04,21,15,20,15.00
2017,04,21,15,21,14.90
2017,04,21,15,22,14.90
2017,04,21,15,23,15.00
2017,04,21,15,24,15.10
2017,04,21,15,25,15.10
2017,04,21,15,26,15.20
2017,04,21,15,27,15.20
2017,04,21,15,28,15.20
2017,04,21,15,29,15.20
2017,04,21,15,30,15.20
2017,04,21,15,31,15.20
2017,04,21,15,32,15.20
2017,04,21,15,33,15.20
2017,04,21,15,34,15.20
2017,04,21,15,35,15.20
2017,04,21,15,36,15.20
2017,04,21,15,37,15.30
2017,04,21,15,38,15.30
2017,04,21,15,39,15.30
2017,04,21,15,40,15.30
2017,04,21,15,41,15.20
2017,04,21,15,42,15.20
2017,04,21,15,43,15.30
2017,04,21,15,44,15.40
2017,04,21,15,45,15.50
2017,04,21,15,46,15.60
2017,04,21,15,47,15.70
2017,04,21,15,48,15.70
2017,04,21,15,49,15.70
2017,04,21,15,50,15.70
2017,04,21,15,51,15.60
2017,04,21,15,52,15.50
2017,04,21,15,53,15.40
2017,04,21,15,54,15.40
2017,04,21,15,55,15.40
2017,04,21,15,56,15.50
2017,04,21,15,57,15.50
2017,04,21,15,58,15.60
2017,04,21,15,59,15.70
2017,04,21,16,00,15.70
2017,04,21,16,01,15.70
2017,04,21,16,02,15.70
2017,04,21,16,03,15.60
2017,04,21,16,04,15.70
2017,04,21,16,05,15.70
2017,04,21,16,06,15.70
2017,04,21,16,07,15.80
2017,04,21,16,08,15.80
2017,04,21,16,09,15.80
2017,04,21,16,10,15.80
2017,04,21,16,11,15.80
2017,04,21,16,12,15.80
2017,04,21,16,13,15.80
2017,04,21,16,14,15.80
2017,04,21,16,15,15.90
2017,04,21,16,16,15.90
2017,04,21,16,17,15.90
2017,04,21,16,18,16.00
2017,04,21,16,19,15.90
2017,04,21,16,20,16.00
2017,04,21,16,21,16.00
2017,04,21,16,22,16.10
2017,04,21,16,23,16.10
2017,04,21,16,24,16.20
2017,04,21,16,25,16.20
2017,04,21,16,26,16.30
2017,04,21,16,27,16.30
2017,04,21,16,28,16.40
2017,04,21,16,29,16.40
2017,04,21,16,30,16.40
2017,04,21,16,31,16.40
2017,04,21,16,32,16.30
2017,04,21,16,33,16.30
2017,04,21,16,34,16.30
2017,04,21,16,35,16.30
2017,04,21,16,36,16.40
2017,04,21,16,37,16.40
2017,04,21,16,38,16.40
2017,04,21,16,39,16.40
2017,04,21,16,40,16.40
2017,04,21,16,41,16.40
2017,04,21,16,42,16.40
2017,04,21,16,43,16.40
2017,04,21,16,44,16.50
2017,04,21,16,45,16.50
2017,04,21,16,46,16.50
2017,04,21,16,47,16.50
2017,04,21,16,48,16.50
2017,04,21,16,49,16.50
2017,04,21,16,50,16.60
2017,04,21,16,51,16.60
2017,04,21,16,52,16.60
2017,04,21,16,53,16.60
2017,04,21,16,54,16.60
2017,04,21,16,55,16.60
2017,04,21,16,56,16.60
2017,04,21,16,57,16.60
2017,04,21,16,58,16.60
2017,04,21,16,59,16.60
2017,04,21,17,00,16.60
2017,04,21,17,01,16.60
2017,04,21,17,02,16.60
2017,04,21,17,03,16.60
2017,04,21,17,04,16.60
2017,04,21,17,05,16.60
2017,04,21,17,06,16.60
2017,04,21,17,07,16.60
2017,04,21,17,08,16.60
2017,04,21,17,09,16.60
2017,04,21,17,10,16.60
2017,04,21,17,11,16.60
2017,04,21,17,12,16.60
2017,04,21,17,13,16.60
2017,04,21,17,14,16.60
2017,04,21,17,15,16.60
2017,04,21,17,16,16.60
2017,04,21,17,17,16.60
2017,04,21,17,18,16.60
2017,04,21,17,19,16.60
2017,04,21,17,20,16.60
2017,04,21,17,21,16.60
2017,04,21,17,22,16.60
2017,04,21,17,23,16.60
2017,04,21,17,24,16.50
2017,04,21,17,25,16.50
2017,04,21,17,26,16.40
2017,04,21,17,27,16.40
2017,04,21,17,28,16.40
2017,04,21,17,29,16.30
2017,04,21,17,30,16.40
2017,04,21,17,31,16.40
2017,04,21,17,32,16.30
2017,04,21,17,33,16.30
2017,04,21,17,34,16.30
2017,04,21,17,35,16.40
2017,04,21,17,36,16.40
2017,04,21,17,37,16.40
2017,04,21,17,38,16.40
2017,04,21,17,39,16.50
2017,04,21,17,40,16.50
2017,04,21,17,41,16.60